{"data":{"norad_id":53491,"intl_designator":"2022-099AC","name":"STARLINK-4450","alt_names":[],"object_type":"PAYLOAD","status":"ACTIVE","operator":null,"country":"US","launch_date":"2022-08-12","launch_site_code":"AFWTR","launch_vehicle":null,"mission":null,"orbit_class":"UNKNOWN","rcs_meters":null,"size_class":null,"mass_kg":null,"dimensions":null,"purposes":["comms"],"wikipedia_slug":null,"has_3d_model":false,"image_url":null,"decayed_at":null,"tle_current":{"epoch":"2026-09-20T22:52:09.233760Z","epoch_age_seconds":39666,"freshness":"FRESH","line1":"1 53491U 22099AC  26263.95288465  .00055959  00000+0  15380-2 0  9991","line2":"2 53491  97.4996  31.9169 0000909 104.6047 255.5298 15.37018609225989","mean_motion":15.37018609,"eccentricity":9.09e-5,"inclination_deg":97.4996,"raan_deg":31.9169,"arg_perigee_deg":104.6047,"mean_anomaly_deg":255.5298,"bstar":0.001538,"rev_number":22598,"period_min":93.687870242305,"perigee_km":454.31010855848,"apogee_km":455.55236036351,"semimajor_km":6833.068234461,"source":"CELESTRAK","updated_at":"2026-09-21T09:00:32.893516Z"}}}